#timestamp,LO_Frequency,Hit,StdDev 
1652662815.2,286047001.0,N
1652662835.0,286046999.7,N
1652662835.9,286046999.7,N
1652662855.8,286047000.1,N
1652662875.6,286047000.5,N
1652662925.5,286047000.1,E
1652662935.4,286047000.6,N
1652662955.2,286047000.7,P
1652662975.1,286046999.7,P
1652662976.0,286046999.7,N
1652662995.8,286047002.3,Y
1652663015.6,286047002.3,P
1652663035.5,286047000.1,N
1652663055.3,286046999.8,N
1652663075.2,286047002.5,N
1652663095.9,286047002.7,N
1652663115.7,286047002.5,N
1652663135.6,286047002.4,N
1652663155.4,286047002.6,N
1652663175.2,286047000.2,N
1652663195.1,286047000.5,N
1652663196.0,286047000.5,N
1652663215.8,286047001.0,N
1652663235.7,286047001.0,N
1652663255.5,286047000.9,N
1652663275.3,286047000.1,N
1652663295.2,286047000.2,N
1652663315.9,286047000.7,N
1652663335.7,286047000.5,N
1652663355.6,286047000.3,N
1652663375.4,286046999.9,N
1652663395.3,286047000.9,N
1652663415.1,286046998.1,N
1652663416.0,286046998.1,N
1652663435.8,286047000.7,N
1652663455.7,286047000.8,N
1652663475.5,286046998.2,N
1652663495.3,286047000.5,N
1652663515.2,286046999.9,N
1652663535.0,286047000.0,N
1652663535.9,286047000.0,N
1652663555.8,286047000.6,N
1652663575.6,286047000.9,N
1652663595.4,286047000.5,N
1652663615.3,286047000.0,N
1652663635.1,286047000.1,N
1652663655.8,286047000.0,N
1652663675.7,286046999.9,N
1652663695.5,286047002.3,N
1652663715.4,286047002.1,N
1652663735.2,286047002.7,N
1652663755.0,286047002.7,N
1652663755.9,286047002.7,N
1652663775.8,286047002.6,N
1652663795.6,286047002.4,N
1652663815.4,286046999.7,N
1652663835.3,286047000.3,N
1652663855.1,286047000.9,N
1652663875.9,286046999.8,N
1652663895.7,286047000.4,N
1652663915.5,286047000.6,N
1652663935.4,286047000.5,N
1652663955.2,286047000.6,N
1652663975.1,286047000.6,N
1652663976.0,286047000.6,N
1652663995.8,286046999.9,N
1652664015.6,286047002.6,N
1652664035.5,286047001.8,N
1652664055.3,286047002.2,N
1652664075.2,286047002.7,N
1652664095.9,286047002.6,N
1652664115.7,286047004.0,Y
1652664135.6,286046999.8,P
1652664155.4,286047000.7,N
1652664175.3,286047000.9,N
1652664195.1,286047000.5,N
1652664196.0,286047000.5,N
1652664215.8,286047002.1,Y
1652664235.7,286046999.8,P
1652664255.5,286047000.2,N
1652664275.4,286047002.4,P
1652664295.2,286047000.0,N
1652664315.0,286046999.7,N
1652664315.9,286046999.7,N
1652664335.8,286047000.3,N
1652664355.6,286047000.5,N
1652664375.5,286047000.0,N
1652664395.3,286047000.5,N
1652664415.1,286047002.7,Y
1652664435.9,286047002.2,P
1652664455.7,286047000.0,N
1652664475.5,286046999.9,N
1652664495.4,286047000.0,N
1652664515.2,286047000.6,N
1652664535.1,286047001.0,N
1652664536.0,286047001.0,N
1652664555.8,286047000.0,N
1652664575.6,286046999.9,N
1652664595.5,286047000.3,N
1652664615.3,286046998.2,N
1652664635.1,286046998.6,N
1652664655.9,286046998.7,N
1652664675.7,286046998.5,N
1652664695.6,286046998.4,N
1652664715.4,286046998.6,N
1652664735.2,286046998.5,N
1652664755.1,286047000.5,N
1652664756.0,286047000.5,N
1652664775.8,286047000.9,N
1652664795.6,286047000.7,N
1652664815.5,286047000.0,N
1652664835.3,286047000.8,N
1652664855.2,286047000.4,N
1652664875.9,286047000.5,N
1652664895.7,286047000.4,N
1652664915.6,286047000.0,N
1652664935.4,286047000.2,N
1652664955.2,286046999.7,N
1652664975.1,286047002.4,N
1652664976.0,286047002.4,N
1652664995.8,286047002.5,N
1652665015.7,286047002.0,N
1652665035.5,286047004.3,Y
1652665055.3,286047004.2,P
1652665075.2,286047003.9,N
1652665095.0,286047004.1,N
1652665095.9,286047004.1,N
1652665115.8,286047002.0,N
1652665135.6,286047002.3,N
1652665155.4,286047000.5,N
1652665175.3,286047001.0,N
1652665195.1,286046999.5,N
1652665215.8,286046999.3,N
1652665235.7,286046997.0,N
1652665255.5,286046998.0,N
1652665275.4,286046995.4,N
1652665295.2,286046997.7,N
1652665315.0,286046996.7,N
1652665315.9,286046996.7,N
1652665335.8,286046997.6,N
1652665355.6,286046998.0,N
1652665375.4,286046996.8,N
1652665395.3,286046997.3,N
1652665415.1,286046996.8,N
1652665435.9,286046998.0,N
1652665455.7,286046997.6,N
1652665475.5,286046995.1,N
1652665495.4,286046997.4,N
1652665515.2,286046996.5,N
1652665535.0,286046999.2,N
1652665536.0,286046999.2,N
1652665555.8,286046999.2,N
1652665575.6,286046996.5,N
1652665595.5,286046997.8,N
1652665615.3,286046994.9,N
1652665635.1,286046997.3,N
1652665655.9,286046997.8,N
1652665675.7,286046997.9,N
1652665695.6,286046997.7,N
1652665715.4,286046994.9,Y
1652665735.2,286046999.3,P
1652665755.1,286046999.6,N
1652665756.0,286046999.6,N
1652665775.8,286046997.8,N
1652665795.7,286046995.0,Y
1652665815.5,286046996.9,P
1652665835.3,286046999.1,N
1652665855.2,286046999.0,N
1652665875.0,286046998.5,N
1652665875.9,286046998.5,N
1652665895.7,286046998.8,N
1652665915.6,286046998.2,N
1652665935.4,286047001.0,N
1652665955.3,286046998.6,N
1652665975.1,286046998.6,N
1652665976.0,286046998.6,N
1652665995.8,286046998.8,N
1652666015.7,286046999.3,N
1652666035.5,286046997.2,Y
1652666055.3,286046998.6,P
1652666075.2,286046999.6,P
1652666095.0,286046998.2,P
1652666095.9,286046998.2,Y
1652666115.8,286047000.9,P
1652666135.6,286047000.8,N
1652666155.4,286046998.6,N
1652666175.3,286046998.2,N
1652666195.1,286046998.1,N
1652666215.9,286046998.7,N
1652666235.7,286046998.3,N
1652666255.5,286047000.3,N
1652666275.4,286047000.7,N
1652666295.2,286047000.7,N
1652666315.0,286047001.1,N
1652666315.9,286047001.1,N
1652666335.8,286046998.2,N
1652666355.6,286046998.2,N
1652666375.5,286047001.2,N
1652666395.3,286047001.1,N
